{"data":{"norad_id":64549,"epoch":"2026-05-24T19:19:39.781920Z","epoch_age_seconds":81902,"freshness":"FRESH","line1":"1 64549U 25135X   26144.80532155  .00006325  00000+0  26784-3 0  9995","line2":"2 64549  97.4758 261.0750 0002127 140.2145 219.9248 15.23522604 51359","mean_motion":15.23522604,"eccentricity":0.0002127,"inclination_deg":97.4758,"raan_deg":261.075,"arg_perigee_deg":140.2145,"mean_anomaly_deg":219.9248,"bstar":0.00026784,"rev_number":5135,"period_min":94.517796862304,"perigee_km":493.7633901854,"apogee_km":496.68731853094,"semimajor_km":6873.3623543582,"source":"CELESTRAK","updated_at":"2026-05-25T13:38:04.612699Z"}}